Batman, Turkey

7:38 PM +03 on September 25, 2017 (GMT +0300)
Batman Air Base

Weather History for LTCJ - July, 2012

Change the Weather History Date:

Friday, July 13, 2012

  Actual Average (LTCC) Record (LTCC)
Temperature  
Mean Temperature 85 °F -  
Max Temperature 104 °F 99 °F 107 °F (2000)
Min Temperature 66 °F 71 °F 35 °F (1998)
Cooling Degree Days 20    
Growing Degree Days 35 (Base 50)    
Moisture  
Dew Point 48 °F    
Average Humidity 32    
Maximum Humidity 73    
Minimum Humidity 10    
Precipitation  
Precipitation 0.00 in - - ()
Sea Level Pressure  
Sea Level Pressure 29.67 in    
Wind  
Wind Speed 4 mph ()    
Max Wind Speed 9 mph    
Max Gust Speed -    
Visibility 6.2 miles    
Events      
Averages and records for this station are not official NWS values.
T = Trace of Precipitation, MM = Missing Value Source: Averaged Metar Reports

Daily Weather History Graph

Daily Weather History Graph

Search for Another Location

Airport or City:

Trip Planner

Search our weather history database for the weather conditions in past years. The results will help you decide how hot, cold, wet, or windy it might be!

Date:

Astronomy

Jul. 13, 2012 Rise Set
Actual Time 5:04 AM EEST 7:38 PM EEST
Civil Twilight 4:33 AM EEST 8:08 PM EEST
Nautical Twilight 3:55 AM EEST 8:46 PM EEST
Astronomical Twilight 3:12 AM EEST 9:29 PM EEST
Moon 12:27 AM EEST (7/13) 2:48 PM EEST (7/13)
Length of Visible Light 15h 35m
Length of Day
14h 34m
Waning Crescent, 29% of the Moon is Illuminated
Jul 13
Waning Crescent
Jul 19
New
Jul 26
First Quarter
Aug 2
Full
Aug 9
Last Quarter

Hourly Weather History & Observations

Time (EEST) Temp. Heat Index Dew Point Humidity Pressure Visibility Wind Dir Wind Speed Gust Speed Precip Events Conditions
12:20 AM 77.0 °F - 50.0 °F 39% 29.68 in - South 4.6 mph - N/A   Clear
12:50 AM 77.0 °F - 48.2 °F 36% 29.68 in - Variable 2.3 mph - N/A   Clear
1:20 AM 75.2 °F - 50.0 °F 41% 29.68 in - SSE 4.6 mph - N/A   Clear
1:50 AM 75.2 °F - 50.0 °F 41% 29.68 in - WSW 5.8 mph - N/A   Clear
2:20 AM 73.4 °F - 53.6 °F 50% 29.68 in - WSW 3.5 mph - N/A   Clear
3:20 AM 71.6 °F - 48.2 °F 43% 29.68 in - Variable 2.3 mph - N/A   Clear
3:50 AM 66.2 °F - 55.4 °F 68% 29.68 in - NNE 6.9 mph - N/A   Clear
4:20 AM 66.2 °F - 57.2 °F 73% 29.68 in - North 4.6 mph - N/A   Clear
4:50 AM 66.2 °F - 57.2 °F 73% 29.68 in - NNE 4.6 mph - N/A   Clear
5:20 AM 66.2 °F - 55.4 °F 68% 29.68 in - NNE 6.9 mph - N/A   Clear
5:50 AM 66.2 °F - 55.4 °F 68% 29.71 in - NNE 6.9 mph - N/A   Clear
6:20 AM 71.6 °F - 53.6 °F 53% 29.71 in - NNE 5.8 mph - N/A   Clear
6:50 AM 73.4 °F - 50.0 °F 44% 29.71 in - North 5.8 mph - N/A   Clear
7:20 AM 77.0 °F - 48.2 °F 36% 29.71 in - NNE 4.6 mph - N/A   Clear
7:50 AM 80.6 °F - 44.6 °F 28% 29.71 in - Variable 2.3 mph - N/A   Clear
8:20 AM 82.4 °F - 44.6 °F 26% 29.71 in - West 3.5 mph - N/A   Clear
8:50 AM 84.2 °F - 41.0 °F 22% 29.71 in - West 4.6 mph - N/A   Clear
9:20 AM 86.0 °F - 41.0 °F 20% 29.71 in - SW 6.9 mph - N/A   Clear
9:50 AM 89.6 °F - 46.4 °F 22% 29.71 in - SW 5.8 mph - N/A   Clear
10:20 AM 91.4 °F - 44.6 °F 20% 29.71 in - SW 5.8 mph - N/A   Clear
10:50 AM 95.0 °F - 46.4 °F 19% 29.71 in 6.2 mi WSW 4.6 mph - N/A   Partly Cloudy
11:20 AM 95.0 °F - 48.2 °F 20% 29.71 in 6.2 mi West 5.8 mph - N/A   Partly Cloudy
11:50 AM 98.6 °F - 46.4 °F 17% 29.71 in 6.2 mi West 4.6 mph - N/A   Partly Cloudy
12:20 PM 100.4 °F - 42.8 °F 14% 29.71 in 6.2 mi Variable 4.6 mph - N/A   Partly Cloudy
12:50 PM 100.4 °F - 41.0 °F 13% 29.68 in 6.2 mi Variable 5.8 mph - N/A   Partly Cloudy
1:20 PM 102.2 °F - 39.2 °F 11% 29.68 in 6.2 mi NW 5.8 mph - N/A   Partly Cloudy
1:50 PM 102.2 °F - 41.0 °F 12% 29.68 in 6.2 mi NNW 5.8 mph - N/A   Partly Cloudy
2:20 PM 104.0 °F - 37.4 °F 10% 29.65 in 6.2 mi Variable 5.8 mph - N/A   Partly Cloudy
2:50 PM 104.0 °F - 42.8 °F 12% 29.65 in 6.2 mi Variable 5.8 mph - N/A   Partly Cloudy
3:20 PM 104.0 °F - 42.8 °F 12% 29.65 in 6.2 mi SW 6.9 mph - N/A   Partly Cloudy
3:50 PM 104.0 °F - 42.8 °F 12% 29.65 in 6.2 mi SW 5.8 mph - N/A   Partly Cloudy
4:20 PM 104.0 °F - 42.8 °F 12% 29.62 in 6.2 mi SW 8.1 mph - N/A   Partly Cloudy
4:50 PM 104.0 °F - 41.0 °F 12% 29.62 in 6.2 mi WSW 9.2 mph - N/A   Partly Cloudy
5:20 PM 102.2 °F - 42.8 °F 13% 29.62 in 6.2 mi WSW 8.1 mph - N/A   Partly Cloudy
5:50 PM 102.2 °F - 42.8 °F 13% 29.62 in 6.2 mi WSW 8.1 mph - N/A   Partly Cloudy
6:20 PM 100.4 °F - 44.6 °F 15% 29.62 in 6.2 mi WSW 5.8 mph - N/A   Partly Cloudy
6:50 PM 98.6 °F - 48.2 °F 18% 29.62 in 6.2 mi Variable 1.2 mph - N/A   Partly Cloudy
7:20 PM 96.8 °F - 46.4 °F 18% 29.65 in 6.2 mi Calm Calm - N/A   Partly Cloudy
7:50 PM 91.4 °F - 50.0 °F 24% 29.62 in 6.2 mi NNE 4.6 mph - N/A   Partly Cloudy
8:20 PM 87.8 °F 85.7 °F 53.6 °F 31% 29.65 in 6.2 mi Variable 2.3 mph - N/A   Scattered Clouds
8:50 PM 84.2 °F 83.5 °F 57.2 °F 40% 29.65 in 6.2 mi NNW 4.6 mph - N/A   Scattered Clouds
9:20 PM 89.6 °F - 51.8 °F 27% 29.65 in 6.2 mi ENE 5.8 mph - N/A   Scattered Clouds
9:50 PM 82.4 °F - 51.8 °F 35% 29.65 in 6.2 mi NNE 6.9 mph - N/A   Scattered Clouds
10:20 PM 80.6 °F 80.8 °F 57.2 °F 45% 29.65 in - North 4.6 mph - N/A   Clear
10:50 PM 78.8 °F - 59.0 °F 51% 29.68 in - NE 2.3 mph - N/A   Clear
11:20 PM 77.0 °F - 60.8 °F 57% 29.68 in - SSW 4.6 mph - N/A   Clear
11:50 PM 77.0 °F - 59.0 °F 54% 29.68 in - Calm Calm - N/A   Clear